Regional Weather Roundup
Issued by NWS Green Bay, WI

Home | Current Version | Previous Version | Graphics & Text | Print | Product List | Glossary Off
Versions: 1 2 3 4 5 6 7 8 9 10 11 12 13 14 15 16 17 18 19 20 21 22 23 24 25 26 27 28 29 30 31 32 33 34 35 36 37 38 39 40 41 42 43 44 45 46 47 48 49 50

000
ASUS43 KGRB 062311
RWRGRB

NORTH-CENTRAL AND NORTHEAST WISCONSIN REGIONAL WEATHER ROUNDUP
NATIONAL WEATHER SERVICE GREEN BAY WI
500 PM CST SAT FEB 06 2016

WIZ005-009-010>012-018-019-070000-
NORTH CENTRAL WISCONSIN

CITY           SKY/WX    TMP DP  RH WIND       PRES   REMARKS
IRONWOOD       CLOUDY    34  23  64 S10G20    29.82F
MANITOWISH WTR CLOUDY    32  22  66 S7        29.88F
ARBOR VITAE    CLOUDY    33  23  68 S10       29.90F
EAGLE RIVER    CLOUDY    30  19  63 S5        29.91S
LAND O LAKES   CLOUDY    30  21  68 S8        29.90F
RHINELANDER    CLOUDY    30  20  66 S9        29.93F
PHILLIPS       CLOUDY    32  21  65 SW10      29.90F
ANTIGO         CLOUDY    27  20  77 S8        29.97F
TOMAHAWK       CLOUDY    31  21  67 S7        29.94F
MERRILL        CLOUDY    32  23  69 SW8       29.97F
$$

WIZ013-073-070000-
NORTHEAST WISCONSIN

CITY           SKY/WX    TMP DP  RH WIND       PRES   REMARKS
IRON MOUNTAIN  CLOUDY    30  20  66 S9        29.95F HAZE
MARINETTE      CLOUDY    30  23  74 SW7       30.04S
OCONTO         CLOUDY    30  25  80 SW6       30.05S
$$

WIZ017-030-035>037-045-070000-
CENTRAL WISCONSIN

CITY           SKY/WX    TMP DP  RH WIND       PRES   REMARKS
MEDFORD        CLOUDY    30  22  73 S9        29.95F
WAUSAU         CLOUDY    33  22  63 S7        29.97F
MOSINEE        PTCLDY    30  25  80 S9        30.00F
MARSHFIELD     PTCLDY    33  20  58 SW10      29.98F
WISC RAPIDS    CLOUDY    32  22  66 SW10      30.04S
STEVENS POINT  CLOUDY    30  22  72 S9        30.02S
WAUPACA        CLEAR     33  25  70 S6        30.04F
SHAWANO        CLOUDY    33  25  72 SW3       30.04S
CLINTONVILLE   CLOUDY    32  25  74 SW7       30.04F
WAUTOMA        PTCLDY    33  25  73 S7        30.06F
$$

WIZ038-039-048-051-070000-
FOX VALLEY

CITY           SKY/WX    TMP DP  RH WIND       PRES   REMARKS
NWS GREEN BAY  CLOUDY    30  24  78 SW8       30.06F
APPLETON       MOCLDY    30  23  74 S9        30.04F
OSHKOSH        MOCLDY    30  23  75 S10       30.07F
FOND DU LAC    CLEAR     31  24  75 SW10      30.08F
$$

WIZ022-050-052-070000-
EAST CENTRAL WISCONSIN

CITY           SKY/WX    TMP DP  RH WIND       PRES   REMARKS
EPHRAIM        CLOUDY    28  24  83 SW7       30.04S
STURGEON BAY   CLOUDY    28  21  74 SW9       30.07F
MANITOWOC      CLOUDY    32  25  75 SW8       30.08F
SHEBOYGAN      CLOUDY    31  24  75 SW7       30.09S
$$

LMZ563-521-522-541>543-070000-
LAKESHORE

STATION/POSITION TIME  TEMP    WIND        PRES    VSBY  WAVE
                       AIR SEA DIR/SP/G                  HT/PER
                 (UTC) (F)     (DEG/KT/KT) (MB)    (MI)  (FT/S)
SHEBOYGAN LKSHOR 2300   33     220/  9/ 10 1020.1S
KEWAUNEE LKSHORE 2200   30                 1017.8S
CHAMBERS ISLAND  2200   29     190/  4/  8 1017.6F
MENOMINEE LKSHOR 2200   30                 1016.4F
$$



USA.gov is the U.S. government's official web portal to all federal, state and local government web resources and services.